ISS
1 25544U 98067A 25258.38319791 .00010865 00000-0 19592-3 0 9992
2 25544 51.6329 220.0184 0004332 341.8913 18.1921 15.50310585529153


Ligne 0
Le nom commun de l'objetISS
Ligne 1
Numéro de catalogue satellite25544U
Désignateur international98067A
Année de lancement98
Numéro de lancement dans l'année067
Object du lancementA
Époque (année)25
Époque (Jour de l'année en UTC)258.38319791
1ère dérivée du mouvement moyen .00010865
2ème dérivée du mouvement moyen 00000-0
B * Terme de glissement 19592-3
Type de jeu d'éléments0
Numéro d'élément 999
Ligne 2
Numéro de catalogue satellite25544
Inclinaison de l'orbite (degrés) 51.6329
Ascension droite du nœud ascendant (degrés)220.0184
Excentricité0004332
Argument du Périgée (degrés)341.8913
Anomalie moyenne (degrés) 18.1921
Mouvement moyen (révolutions / jour)15.50310585
Numéro de révolution à l'époque52915
Valeurs déduites
Période Orbitale (en minutes)92.9 min.
Demi-grand axe (en kilomètres)6794 Km
Altitude à l‘Apogée (en kilomètres)425.9 Km
Altitude au Périgée (en kilomètres)420 Km

* Sources des TLE's : Celestrack